Time,TemperatureF,DewpointF,PressureIn,WindDirection,WindDirectionDegrees,WindSpeedMPH,WindSpeedGustMPH,Humidity,HourlyPrecipIn,Conditions,Clouds,dailyrainin,SoftwareType,DateUTC
2013-02-20 00:01:00,4.0,-7.0,-100.00,NNW,335,7.0,14.0,60,-99.99,,,-99.99,,2013-02-20 06:01:00,
2013-02-20 00:22:00,3.0,-7.0,-100.00,NW,320,6.0,10.0,62,-99.99,,,-99.99,,2013-02-20 06:22:00,
2013-02-20 00:32:00,3.0,-7.0,-100.00,NW,320,6.0,10.0,62,-99.99,,,-99.99,,2013-02-20 06:32:00,
2013-02-20 00:42:00,3.0,-7.0,-100.00,NW,320,6.0,10.0,62,-99.99,,,-99.99,,2013-02-20 06:42:00,
2013-02-20 00:52:00,3.0,-7.0,-100.00,NW,320,6.0,10.0,62,-99.99,,,-99.99,,2013-02-20 06:52:00,
2013-02-20 01:01:00,3.0,-7.0,-100.00,NW,320,6.0,10.0,62,-99.99,,,-99.99,,2013-02-20 07:01:00,
2013-02-20 01:02:00,3.0,-6.0,-100.00,NW,305,6.0,11.0,66,-99.99,,,-99.99,,2013-02-20 07:02:00,
2013-02-20 01:21:00,3.0,-6.0,-100.00,NW,305,6.0,11.0,66,-99.99,,,-99.99,,2013-02-20 07:21:00,
2013-02-20 01:32:00,3.0,-6.0,-100.00,NW,305,6.0,11.0,66,-99.99,,,-99.99,,2013-02-20 07:32:00,
2013-02-20 01:42:00,3.0,-6.0,-100.00,NW,305,6.0,11.0,66,-99.99,,,-99.99,,2013-02-20 07:42:00,
2013-02-20 01:52:00,3.0,-6.0,-100.00,NW,305,6.0,11.0,66,-99.99,,,-99.99,,2013-02-20 07:52:00,
2013-02-20 02:22:00,1.0,-7.0,-100.00,WNW,300,5.0,10.0,68,-99.99,,,-99.99,,2013-02-20 08:22:00,
2013-02-20 02:32:00,1.0,-7.0,-100.00,WNW,300,5.0,10.0,68,-99.99,,,-99.99,,2013-02-20 08:32:00,
2013-02-20 02:42:00,1.0,-7.0,-100.00,WNW,300,5.0,10.0,68,-99.99,,,-99.99,,2013-02-20 08:42:00,
2013-02-20 02:52:00,1.0,-7.0,-100.00,WNW,300,5.0,10.0,68,-99.99,,,-99.99,,2013-02-20 08:52:00,
2013-02-20 03:01:00,1.0,-7.0,-100.00,WNW,300,5.0,10.0,68,-99.99,,,-99.99,,2013-02-20 09:01:00,
2013-02-20 03:22:00,0.0,-7.0,-100.00,NW,305,4.0,10.0,71,-99.99,,,-99.99,,2013-02-20 09:22:00,
2013-02-20 03:32:00,0.0,-7.0,-100.00,NW,305,4.0,10.0,71,-99.99,,,-99.99,,2013-02-20 09:32:00,
2013-02-20 03:42:00,0.0,-7.0,-100.00,NW,305,4.0,10.0,71,-99.99,,,-99.99,,2013-02-20 09:42:00,
2013-02-20 03:52:00,0.0,-7.0,-100.00,NW,305,4.0,10.0,71,-99.99,,,-99.99,,2013-02-20 09:52:00,
2013-02-20 04:01:00,0.0,-7.0,-100.00,NW,305,4.0,10.0,71,-99.99,,,-99.99,,2013-02-20 10:01:00,
2013-02-20 04:02:00,0.0,-7.0,-100.00,NW,320,4.0,9.0,73,-99.99,,,-99.99,,2013-02-20 10:02:00,
2013-02-20 04:22:00,0.0,-7.0,-100.00,NW,320,4.0,9.0,73,-99.99,,,-99.99,,2013-02-20 10:22:00,
2013-02-20 04:32:00,0.0,-7.0,-100.00,NW,320,4.0,9.0,73,-99.99,,,-99.99,,2013-02-20 10:32:00,
2013-02-20 04:42:00,0.0,-7.0,-100.00,NW,320,4.0,9.0,73,-99.99,,,-99.99,,2013-02-20 10:42:00,
2013-02-20 04:52:00,0.0,-7.0,-100.00,NW,320,4.0,9.0,73,-99.99,,,-99.99,,2013-02-20 10:52:00,
2013-02-20 05:22:00,-1.0,-8.0,-100.00,WNW,290,4.0,7.0,75,-99.99,,,-99.99,,2013-02-20 11:22:00,
2013-02-20 05:32:00,-1.0,-8.0,-100.00,WNW,290,4.0,7.0,75,-99.99,,,-99.99,,2013-02-20 11:32:00,
2013-02-20 05:42:00,-1.0,-8.0,-100.00,WNW,290,4.0,7.0,75,-99.99,,,-99.99,,2013-02-20 11:42:00,
2013-02-20 05:52:00,-1.0,-8.0,-100.00,WNW,290,4.0,7.0,75,-99.99,,,-99.99,,2013-02-20 11:52:00,
2013-02-20 06:01:00,-1.0,-8.0,-100.00,WNW,290,4.0,7.0,75,-99.99,,,-99.99,,2013-02-20 12:01:00,
2013-02-20 06:22:00,-2.0,-8.0,-100.00,West,265,4.0,6.0,77,-99.99,,,-99.99,,2013-02-20 12:22:00,
2013-02-20 06:32:00,-2.0,-8.0,-100.00,West,265,4.0,6.0,77,-99.99,,,-99.99,,2013-02-20 12:32:00,
2013-02-20 06:42:00,-2.0,-8.0,-100.00,West,265,4.0,6.0,77,-99.99,,,-99.99,,2013-02-20 12:42:00,
2013-02-20 06:53:00,-2.0,-8.0,-100.00,West,265,4.0,6.0,77,-99.99,,,-99.99,,2013-02-20 12:53:00,
2013-02-20 07:01:00,-2.0,-8.0,-100.00,West,265,4.0,6.0,77,-99.99,,,-99.99,,2013-02-20 13:01:00,
2013-02-20 07:22:00,-2.0,-7.0,-100.00,WNW,300,3.0,6.0,79,-99.99,,,-99.99,,2013-02-20 13:22:00,
2013-02-20 07:32:00,-2.0,-7.0,-100.00,WNW,300,3.0,6.0,79,-99.99,,,-99.99,,2013-02-20 13:32:00,
2013-02-20 07:42:00,-2.0,-7.0,-100.00,WNW,300,3.0,6.0,79,-99.99,,,-99.99,,2013-02-20 13:42:00,
2013-02-20 07:52:00,-2.0,-7.0,-100.00,WNW,300,3.0,6.0,79,-99.99,,,-99.99,,2013-02-20 13:52:00,
2013-02-20 08:01:00,-2.0,-7.0,-100.00,WNW,300,3.0,6.0,79,-99.99,,,-99.99,,2013-02-20 14:01:00,
2013-02-20 08:22:00,1.0,-4.0,-100.00,WNW,290,3.0,7.0,80,-99.99,,,-99.99,,2013-02-20 14:22:00,
2013-02-20 08:32:00,1.0,-4.0,-100.00,WNW,290,3.0,7.0,80,-99.99,,,-99.99,,2013-02-20 14:32:00,
2013-02-20 08:42:00,1.0,-4.0,-100.00,WNW,290,3.0,7.0,80,-99.99,,,-99.99,,2013-02-20 14:42:00,
2013-02-20 08:52:00,1.0,-4.0,-100.00,WNW,290,3.0,7.0,80,-99.99,,,-99.99,,2013-02-20 14:52:00,
2013-02-20 09:01:00,1.0,-4.0,-100.00,WNW,290,3.0,7.0,80,-99.99,,,-99.99,,2013-02-20 15:01:00,
2013-02-20 09:22:00,7.0,0.0,-100.00,NNW,335,2.0,6.0,75,-99.99,,,-99.99,,2013-02-20 15:22:00,
2013-02-20 09:32:00,7.0,0.0,-100.00,NNW,335,2.0,6.0,75,-99.99,,,-99.99,,2013-02-20 15:32:00,
2013-02-20 09:42:00,7.0,0.0,-100.00,NNW,335,2.0,6.0,75,-99.99,,,-99.99,,2013-02-20 15:42:00,
2013-02-20 09:52:00,7.0,0.0,-100.00,NNW,335,2.0,6.0,75,-99.99,,,-99.99,,2013-02-20 15:52:00,
2013-02-20 10:01:00,7.0,0.0,-100.00,NNW,335,2.0,6.0,75,-99.99,,,-99.99,,2013-02-20 16:01:00,
2013-02-20 10:22:00,13.0,3.0,-100.00,NNW,330,4.0,9.0,66,-99.99,,,-99.99,,2013-02-20 16:22:00,
2013-02-20 10:32:00,13.0,3.0,-100.00,NNW,330,4.0,9.0,66,-99.99,,,-99.99,,2013-02-20 16:32:00,
2013-02-20 10:42:00,13.0,3.0,-100.00,NNW,330,4.0,9.0,66,-99.99,,,-99.99,,2013-02-20 16:42:00,
2013-02-20 10:52:00,13.0,3.0,-100.00,NNW,330,4.0,9.0,66,-99.99,,,-99.99,,2013-02-20 16:52:00,
2013-02-20 11:01:00,13.0,3.0,-100.00,NNW,330,4.0,9.0,66,-99.99,,,-99.99,,2013-02-20 17:01:00,
2013-02-20 11:02:00,20.0,6.0,-100.00,NNE,25,6.0,11.0,55,-99.99,,,-99.99,,2013-02-20 17:02:00,
2013-02-20 11:42:00,20.0,6.0,-100.00,NNE,25,6.0,11.0,55,-99.99,,,-99.99,,2013-02-20 17:42:00,
2013-02-20 11:52:00,20.0,6.0,-100.00,NNE,25,6.0,11.0,55,-99.99,,,-99.99,,2013-02-20 17:52:00,
2013-02-20 12:22:00,23.0,6.0,-100.00,NNW,330,4.0,9.0,49,-99.99,,,-99.99,,2013-02-20 18:22:00,
2013-02-20 12:42:00,23.0,6.0,-100.00,NNW,330,4.0,9.0,49,-99.99,,,-99.99,,2013-02-20 18:42:00,
2013-02-20 12:52:00,23.0,6.0,-100.00,NNW,330,4.0,9.0,49,-99.99,,,-99.99,,2013-02-20 18:52:00,
2013-02-20 13:01:00,23.0,6.0,-100.00,NNW,330,4.0,9.0,49,-99.99,,,-99.99,,2013-02-20 19:01:00,
2013-02-20 13:21:00,24.0,7.0,-100.00,NW,320,4.0,7.0,47,-99.99,,,-99.99,,2013-02-20 19:21:00,
2013-02-20 13:32:00,24.0,7.0,-100.00,NW,320,4.0,7.0,47,-99.99,,,-99.99,,2013-02-20 19:32:00,
2013-02-20 13:42:00,24.0,7.0,-100.00,NW,320,4.0,7.0,47,-99.99,,,-99.99,,2013-02-20 19:42:00,
2013-02-20 13:52:00,24.0,7.0,-100.00,NW,320,4.0,7.0,47,-99.99,,,-99.99,,2013-02-20 19:52:00,
2013-02-20 14:01:00,24.0,7.0,-100.00,NW,320,4.0,7.0,47,-99.99,,,-99.99,,2013-02-20 20:01:00,
2013-02-20 15:01:00,25.0,7.0,-100.00,WNW,300,4.0,11.0,47,-99.99,,,-99.99,,2013-02-20 21:01:00,
2013-02-20 15:21:00,24.0,6.0,-100.00,NW,305,4.0,9.0,46,-99.99,,,-99.99,,2013-02-20 21:21:00,
2013-02-20 15:32:00,24.0,6.0,-100.00,NW,305,4.0,9.0,46,-99.99,,,-99.99,,2013-02-20 21:32:00,
2013-02-20 15:42:00,24.0,6.0,-100.00,NW,305,4.0,9.0,46,-99.99,,,-99.99,,2013-02-20 21:42:00,
2013-02-20 15:52:00,24.0,6.0,-100.00,NW,305,4.0,9.0,46,-99.99,,,-99.99,,2013-02-20 21:52:00,
2013-02-20 16:01:00,24.0,6.0,-100.00,NW,305,4.0,9.0,46,-99.99,,,-99.99,,2013-02-20 22:01:00,
2013-02-20 17:22:00,17.0,4.0,-100.00,NW,310,3.0,6.0,56,-99.99,,,-99.99,,2013-02-20 23:22:00,
2013-02-20 17:32:00,17.0,4.0,-100.00,NW,310,3.0,6.0,56,-99.99,,,-99.99,,2013-02-20 23:32:00,
2013-02-20 17:42:00,17.0,4.0,-100.00,NW,310,3.0,6.0,56,-99.99,,,-99.99,,2013-02-20 23:42:00,
2013-02-20 17:52:00,17.0,4.0,-100.00,NW,310,3.0,6.0,56,-99.99,,,-99.99,,2013-02-20 23:52:00,
2013-02-20 18:02:00,17.0,4.0,-100.00,NW,310,3.0,6.0,56,-99.99,,,-99.99,,2013-02-21 00:02:00,
2013-02-20 18:22:00,15.0,4.0,-100.00,North,0,0.0,6.0,62,-99.99,,,-99.99,,2013-02-21 00:22:00,
2013-02-20 18:32:00,15.0,4.0,-100.00,North,0,0.0,6.0,62,-99.99,,,-99.99,,2013-02-21 00:32:00,
2013-02-20 18:42:00,15.0,4.0,-100.00,North,0,0.0,6.0,62,-99.99,,,-99.99,,2013-02-21 00:42:00,
2013-02-20 18:52:00,15.0,4.0,-100.00,North,0,0.0,6.0,62,-99.99,,,-99.99,,2013-02-21 00:52:00,
2013-02-20 19:01:00,15.0,4.0,-100.00,North,0,0.0,6.0,62,-99.99,,,-99.99,,2013-02-21 01:01:00,
2013-02-20 19:21:00,13.0,5.0,-100.00,NNE,20,1.0,2.0,68,-99.99,,,-99.99,,2013-02-21 01:21:00,
2013-02-20 19:32:00,13.0,5.0,-100.00,NNE,20,1.0,2.0,68,-99.99,,,-99.99,,2013-02-21 01:32:00,
2013-02-20 19:42:00,13.0,5.0,-100.00,NNE,20,1.0,2.0,68,-99.99,,,-99.99,,2013-02-21 01:42:00,
2013-02-20 19:52:00,13.0,5.0,-100.00,NNE,20,1.0,2.0,68,-99.99,,,-99.99,,2013-02-21 01:52:00,
2013-02-20 20:01:00,13.0,5.0,-100.00,NNE,20,1.0,2.0,68,-99.99,,,-99.99,,2013-02-21 02:01:00,
2013-02-20 20:22:00,13.0,5.0,-100.00,NNE,20,0.0,3.0,71,-99.99,,,-99.99,,2013-02-21 02:22:00,
2013-02-20 20:32:00,13.0,5.0,-100.00,NNE,20,0.0,3.0,71,-99.99,,,-99.99,,2013-02-21 02:32:00,
2013-02-20 20:42:00,13.0,5.0,-100.00,NNE,20,0.0,3.0,71,-99.99,,,-99.99,,2013-02-21 02:42:00,
2013-02-20 20:52:00,13.0,5.0,-100.00,NNE,20,0.0,3.0,71,-99.99,,,-99.99,,2013-02-21 02:52:00,
2013-02-20 21:01:00,13.0,5.0,-100.00,NNE,20,0.0,3.0,71,-99.99,,,-99.99,,2013-02-21 03:01:00,
2013-02-20 21:22:00,10.0,4.0,-100.00,North,5,0.0,3.0,75,-99.99,,,-99.99,,2013-02-21 03:22:00,
2013-02-20 21:32:00,10.0,4.0,-100.00,North,5,0.0,3.0,75,-99.99,,,-99.99,,2013-02-21 03:32:00,
2013-02-20 21:42:00,10.0,4.0,-100.00,North,5,0.0,3.0,75,-99.99,,,-99.99,,2013-02-21 03:42:00,
2013-02-20 21:52:00,10.0,4.0,-100.00,North,5,0.0,3.0,75,-99.99,,,-99.99,,2013-02-21 03:52:00,
2013-02-20 22:01:00,10.0,4.0,-100.00,North,5,0.0,3.0,75,-99.99,,,-99.99,,2013-02-21 04:01:00,
2013-02-20 22:02:00,12.0,6.0,-100.00,NNE,30,2.0,5.0,75,-99.99,,,-99.99,,2013-02-21 04:02:00,
2013-02-20 22:22:00,12.0,6.0,-100.00,NNE,30,2.0,5.0,75,-99.99,,,-99.99,,2013-02-21 04:22:00,
2013-02-20 22:32:00,12.0,6.0,-100.00,NNE,30,2.0,5.0,75,-99.99,,,-99.99,,2013-02-21 04:32:00,
2013-02-20 22:42:00,12.0,6.0,-100.00,NNE,30,2.0,5.0,75,-99.99,,,-99.99,,2013-02-21 04:42:00,
2013-02-20 22:52:00,12.0,6.0,-100.00,NNE,30,2.0,5.0,75,-99.99,,,-99.99,,2013-02-21 04:52:00,
2013-02-20 23:22:00,11.0,5.0,-100.00,NE,45,1.0,4.0,75,-99.99,,,-99.99,,2013-02-21 05:22:00,
2013-02-20 23:37:00,11.0,5.0,-100.00,NE,45,1.0,4.0,75,-99.99,,,-99.99,,2013-02-21 05:37:00,
2013-02-20 23:46:00,11.0,5.0,-100.00,NE,45,1.0,4.0,75,-99.99,,,-99.99,,2013-02-21 05:46:00,
2013-02-20 23:59:00,11.0,5.0,-100.00,NE,45,1.0,4.0,75,-99.99,,,-99.99,,2013-02-21 05:59:00,